Date String (YYYY-MM-DD hh:mm:ss) UTC,Instrument flags,Ambient pressure (hPa),Sample flow (lpm),Bypass flow (lpm),Sample temperature (°C),Ambient temperature (°C),ASC tube jacket temperature (°C),LED temperature (°C),Box temperature (°C),Sample RH (%),Span deviation,Mass concentration (μg/m³),Mass concentration (μg/m³),Mass concentration (μg/m³)
DateTimeUTC,F1_M11,P_M11,Q1_M11,Q2_M11,T1_M11,T2_M11,T3_M11,T4_M11,T5_M11,U1_M11,ZSPAN_M11,X0_M11,X2_M11,X1_M11
2022-12-08 18:00:00,,0825.2,5.00,0.00,21.7,20.6,00.0,30.6,23.5,08.7,0000.0,0003.75,0001.23,0000.90
2022-12-08 18:01:00,,0825.1,5.01,0.00,21.7,20.6,00.0,30.6,23.5,08.7,0000.0,0003.90,0001.25,0000.92
2022-12-08 18:02:00,,0825.0,5.01,0.00,21.7,20.6,00.0,30.6,23.5,08.4,0000.0,0003.83,0001.25,0000.94
2022-12-08 18:03:00,,0825.0,4.99,0.00,21.7,20.6,00.0,30.6,23.5,08.3,0000.0,0003.85,0001.27,0000.95
2022-12-08 18:04:00,,0825.1,4.99,0.00,21.7,20.6,00.0,30.6,23.5,08.2,0000.0,0003.58,0001.28,0000.96
2022-12-08 18:05:00,,0825.2,4.99,0.00,21.7,20.6,00.0,30.6,23.5,08.1,0000.0,0002.59,0001.28,0000.97
2022-12-08 18:06:00,,0825.2,5.00,0.00,21.8,20.6,00.0,30.6,23.6,08.1,0000.0,0002.51,0001.26,0000.98
2022-12-08 18:07:00,,0825.1,5.00,0.00,21.8,20.6,00.0,30.6,23.6,08.4,0000.0,0002.53,0001.28,0001.01
2022-12-08 18:08:00,,0825.1,5.00,0.00,21.8,20.6,00.0,30.6,23.6,08.4,0000.0,0002.50,0001.27,0001.03
2022-12-08 18:09:00,,0825.3,5.02,0.00,21.8,20.6,00.0,30.6,23.6,08.6,0000.0,0002.17,0001.26,0001.05
2022-12-08 18:10:00,,0825.0,5.00,0.00,21.8,20.6,00.0,30.6,23.6,08.3,0000.0,0002.10,0001.27,0001.06
2022-12-08 18:11:00,,0825.1,4.99,0.00,21.8,20.6,00.0,30.7,23.6,08.2,0000.0,0001.86,0001.29,0001.08
2022-12-08 18:12:00,,0825.2,4.99,0.00,21.8,20.6,00.0,30.7,23.6,08.3,0000.0,0001.75,0001.30,0001.09
2022-12-08 18:13:00,,0825.2,4.99,0.00,21.8,20.7,00.0,30.7,23.6,08.3,0000.0,0002.18,0001.34,0001.10
2022-12-08 18:14:00,,0825.2,5.00,0.00,21.8,20.7,00.0,30.7,23.6,08.4,0000.0,0002.54,0001.35,0001.11
2022-12-08 18:15:00,,0825.2,5.02,0.00,21.8,20.7,00.0,30.7,23.6,08.4,0000.0,0002.96,0001.37,0001.13
2022-12-08 18:16:00,,0825.2,4.99,0.00,21.8,20.7,00.0,30.7,23.6,07.9,0000.0,0003.60,0001.40,0001.13
2022-12-08 18:17:00,,0825.3,4.99,0.00,21.8,20.7,00.0,30.7,23.6,08.0,0000.0,0003.84,0001.40,0001.11
2022-12-08 18:18:00,,0825.1,5.01,0.00,21.8,20.7,00.0,30.7,23.6,08.0,0000.0,0005.33,0001.38,0001.10
2022-12-08 18:19:00,,0825.2,5.02,0.00,21.8,20.6,00.0,30.7,23.6,07.8,0000.0,0005.41,0001.36,0001.07
2022-12-08 18:20:00,,0825.2,5.00,0.00,21.8,20.6,00.0,30.7,23.6,08.0,0000.0,0005.57,0001.35,0001.06
2022-12-08 18:21:00,,0825.1,4.99,0.00,21.8,20.6,00.0,30.7,23.6,07.9,0000.0,0005.81,0001.34,0001.06
2022-12-08 18:22:00,,0825.2,4.99,0.00,21.8,20.6,00.0,30.7,23.6,07.9,0000.0,0005.80,0001.31,0001.01
2022-12-08 18:23:00,,0825.1,4.99,0.00,21.8,20.6,00.0,30.7,23.6,08.1,0000.0,0005.72,0001.25,0000.95
2022-12-08 18:24:00,,0824.7,5.00,0.00,21.8,20.6,00.0,30.7,23.6,08.0,0000.0,0005.39,0001.22,0000.92
2022-12-08 18:25:00,,0825.0,5.00,0.00,21.8,20.6,00.0,30.7,23.6,08.1,0000.0,0005.03,0001.23,0000.93
2022-12-08 18:26:00,,0825.1,5.00,0.00,21.8,20.5,00.0,30.7,23.6,08.0,0000.0,0004.91,0001.28,0000.97
2022-12-08 18:27:00,,0825.2,5.02,0.00,21.8,20.5,00.0,30.7,23.6,08.0,0000.0,0004.25,0001.30,0001.02
2022-12-08 18:28:00,,0825.3,4.98,0.00,21.8,20.6,00.0,30.7,23.6,08.0,0000.0,0004.09,0001.36,0001.08
2022-12-08 18:29:00,,0825.3,4.99,0.00,21.8,20.6,00.0,30.7,23.6,08.1,0000.0,0002.61,0001.43,0001.16
2022-12-08 18:30:00,,0825.4,5.00,0.00,21.8,20.6,00.0,30.7,23.6,08.3,0000.0,0002.72,0001.50,0001.25
2022-12-08 18:31:00,,0825.3,5.00,0.00,21.8,20.6,00.0,30.7,23.6,08.5,0000.0,0002.93,0001.58,0001.33
2022-12-08 18:32:00,,0825.4,5.01,0.00,21.8,20.6,00.0,30.7,23.6,08.2,0000.0,0002.72,0001.61,0001.36
2022-12-08 18:33:00,,0825.3,5.01,0.00,21.8,20.5,00.0,30.7,23.6,08.2,0000.0,0002.70,0001.62,0001.40
2022-12-08 18:34:00,,0825.2,5.01,0.00,21.8,20.5,00.0,30.7,23.5,08.3,0000.0,0003.20,0001.70,0001.47
2022-12-08 18:35:00,,0825.5,4.99,0.00,21.8,20.5,00.0,30.7,23.5,08.3,0000.0,0003.86,0001.75,0001.53
2022-12-08 18:36:00,,0825.4,4.99,0.00,21.8,20.5,00.0,30.7,23.5,08.1,0000.0,0003.94,0001.77,0001.57
2022-12-08 18:37:00,,0825.4,4.99,0.00,21.8,20.5,00.0,30.7,23.6,08.2,0000.0,0004.11,0001.79,0001.58
2022-12-08 18:38:00,,0825.3,5.01,0.00,21.8,20.5,00.0,30.7,23.6,08.3,0000.0,0004.16,0001.80,0001.58
2022-12-08 18:39:00,,0825.4,5.01,0.00,21.8,20.6,00.0,30.7,23.6,08.4,0000.0,0004.36,0001.82,0001.57
2022-12-08 18:40:00,,0825.2,5.01,0.00,21.8,20.6,00.0,30.7,23.6,08.4,0000.0,0005.25,0001.83,0001.51
2022-12-08 18:41:00,,0825.3,4.97,0.00,21.8,20.6,00.0,30.7,23.6,08.2,0000.0,0005.18,0001.76,0001.44
2022-12-08 18:52:00,,0825.4,5.00,0.00,21.9,20.8,00.0,30.8,23.8,08.2,0000.0,0003.17,0002.18,0002.00
2022-12-08 18:53:00,,0825.4,5.00,0.00,21.9,20.8,00.0,30.8,23.8,08.2,0000.0,0004.76,0002.27,0002.09
2022-12-08 18:54:00,,0825.3,4.99,0.00,21.9,20.8,00.0,30.8,23.8,08.1,0000.0,0004.92,0002.24,0002.08
2022-12-08 18:55:00,,0825.3,5.00,0.00,21.9,20.8,00.0,30.8,23.8,07.9,0000.0,0004.79,0002.16,0001.98
2022-12-08 18:56:00,,0825.1,5.00,0.00,22.0,20.8,00.0,30.8,23.8,07.8,0000.0,0005.22,0002.08,0001.88
2022-12-08 18:57:00,,0825.1,5.01,0.00,22.0,20.7,00.0,30.8,23.8,07.8,0000.0,0005.41,0002.05,0001.84
2022-12-08 18:58:00,,0825.3,5.01,0.00,22.0,20.7,00.0,30.8,23.8,07.8,0000.0,0005.42,0002.00,0001.79
2022-12-08 18:59:00,,0825.4,4.99,0.00,22.0,20.7,00.0,30.8,23.7,08.1,0000.0,0005.43,0002.02,0001.82
